• In Romania
  • List of Countries
  • For 7 days
  • Water Temperature
  • Satellite Maps
  • Weather Map
  • Weather Widgets
  • user-avatar
    Login

    Hourly Weather Pecs

    Today, 23 September, Sunday

    Time Temperature Precipitation Wind Pressure Humidity
    00:00 +12°C° 0 mm 0 mps 748 mmHg 65%
    01:00 +12°C° 0 mm 0 mps 748 mmHg 67%
    02:00 +12°C° 0 mm 0 mps 748 mmHg 66%
    03:00 +12°C° 0 mm 0 mps 748 mmHg 65%
    04:00 +12°C° 0 mm 0 mps 748 mmHg 64%
    05:00 +14°C° 0 mm 1 mps 748 mmHg 62%
    06:00 +14°C° 0 mm 1 mps 748 mmHg 60%
    07:00 +14°C° 0 mm 1 mps 748 mmHg 58%
    08:00 +16°C° 0 mm 2 mps 748 mmHg 52%
    09:00 +18°C° 0 mm 2 mps 748 mmHg 46%
    10:00 +19°C° 0 mm 2 mps 748 mmHg 41%
    11:00 +21°C° 0 mm 2 mps 747 mmHg 40%
    12:00 +23°C° 0 mm 2 mps 746 mmHg 39%
    13:00 +25°C° 0 mm 2 mps 746 mmHg 38%
    14:00 +25°C° 0 mm 3 mps 745 mmHg 39%
    15:00 +26°C° 0 mm 3 mps 744 mmHg 41%
    16:00 +27°C° 0 mm 3 mps 744 mmHg 42%
    17:00 +25°C° 0 mm 3 mps 743 mmHg 47%
    18:00 +24°C° 0 mm 3 mps 743 mmHg 53%
    19:00 +21°C° 0 mm 3 mps 742 mmHg 58%
    20:00 +21°C° 0 mm 3 mps 741 mmHg 59%
    21:00 +21°C° 0 mm 4 mps 741 mmHg 59%
    22:00 +20°C° 0 mm 4 mps 740 mmHg 60%
    23:00 +20°C° 0 mm 4 mps 740 mmHg 63%

    Tomorrow, 24 September, Monday

    Time Temperature Precipitation Wind Pressure Humidity
    00:00 +20°C° 0 mm 4 mps 739 mmHg 66%
    01:00 +20°C° 0 mm 4 mps 738 mmHg 69%
    02:00 +19°C° 0.8 mm 5 mps 738 mmHg 73%
    03:00 +19°C° 0.8 mm 5 mps 739 mmHg 77%
    04:00 +19°C° 0.8 mm 6 mps 740 mmHg 82%
    05:00 +16°C° 1.5 mm 6 mps 741 mmHg 80%
    06:00 +14°C° 1.5 mm 7 mps 743 mmHg 78%
    07:00 +12°C° 1.5 mm 8 mps 745 mmHg 77%
    08:00 +11°C° 0.5 mm 7 mps 747 mmHg 76%
    09:00 +10°C° 0.5 mm 6 mps 748 mmHg 76%
    10:00 +10°C° 0.5 mm 5 mps 750 mmHg 75%
    11:00 +12°C° 0.1 mm 5 mps 750 mmHg 69%
    12:00 +13°C° 0.1 mm 4 mps 751 mmHg 62%
    13:00 +14°C° 0.1 mm 4 mps 751 mmHg 56%
    14:00 +14°C° 0 mm 5 mps 751 mmHg 50%
    15:00 +15°C° 0 mm 5 mps 751 mmHg 44%
    16:00 +16°C° 0 mm 6 mps 751 mmHg 37%
    17:00 +14°C° 0 mm 5 mps 751 mmHg 41%
    18:00 +13°C° 0 mm 4 mps 752 mmHg 44%
    19:00 +11°C° 0 mm 3 mps 752 mmHg 47%
    20:00 +11°C° 0 mm 3 mps 753 mmHg 48%
    21:00 +10°C° 0 mm 3 mps 753 mmHg 50%
    22:00 +10°C° 0 mm 3 mps 754 mmHg 51%
    23:00 +9°C° 0 mm 3 mps 754 mmHg 53%

    Day after tomorrow, 25 September, Tuesday

    Time Temperature Precipitation Wind Pressure Humidity
    00:00 +9°C° 0 mm 3 mps 754 mmHg 55%
    01:00 +8°C° 0 mm 3 mps 754 mmHg 57%
    02:00 +8°C° 0 mm 3 mps 755 mmHg 59%
    03:00 +7°C° 0 mm 3 mps 755 mmHg 60%
    04:00 +7°C° 0 mm 3 mps 755 mmHg 62%
    05:00 +7°C° 0 mm 3 mps 755 mmHg 62%
    06:00 +7°C° 0 mm 4 mps 756 mmHg 61%
    07:00 +7°C° 0 mm 4 mps 756 mmHg 60%
    08:00 +9°C° 0 mm 5 mps 756 mmHg 53%
    09:00 +12°C° 0 mm 5 mps 757 mmHg 45%
    10:00 +13°C° 0 mm 5 mps 757 mmHg 38%
    11:00 +14°C° 0 mm 5 mps 757 mmHg 35%
    12:00 +15°C° 0 mm 5 mps 756 mmHg 32%
    13:00 +15°C° 0 mm 6 mps 756 mmHg 29%
    14:00 +15°C° 0 mm 5 mps 756 mmHg 29%
    15:00 +15°C° 0 mm 5 mps 756 mmHg 29%
    16:00 +14°C° 0 mm 5 mps 756 mmHg 30%
    17:00 +13°C° 0 mm 4 mps 756 mmHg 35%
    18:00 +11°C° 0 mm 3 mps 757 mmHg 40%
    19:00 +9°C° 0 mm 2 mps 757 mmHg 45%
    20:00 +9°C° 0 mm 2 mps 757 mmHg 48%
    21:00 +8°C° 0 mm 2 mps 758 mmHg 51%
    22:00 +8°C° 0 mm 2 mps 758 mmHg 54%
    23:00 +7°C° 0 mm 2 mps 758 mmHg 57%

    26 September, Wednesday

    Time Temperature Precipitation Wind Pressure Humidity
    00:00 +7°C° 0 mm 2 mps 758 mmHg 59%
    01:00 +6°C° 0 mm 2 mps 758 mmHg 62%
    02:00 +6°C° 0 mm 2 mps 758 mmHg 63%
    03:00 +7°C° 0 mm 1 mps 758 mmHg 65%
    04:00 +6°C° 0 mm 1 mps 758 mmHg 67%
    05:00 +7°C° 0 mm 1 mps 758 mmHg 64%
    06:00 +7°C° 0 mm 1 mps 759 mmHg 62%
    07:00 +8°C° 0 mm 1 mps 759 mmHg 59%
    08:00 +10°C° 0 mm 1 mps 759 mmHg 52%
    09:00 +12°C° 0 mm 1 mps 759 mmHg 45%
    10:00 +15°C° 0 mm 2 mps 759 mmHg 37%
    11:00 +15°C° 0 mm 2 mps 759 mmHg 34%
    12:00 +16°C° 0 mm 2 mps 758 mmHg 31%
    13:00 +17°C° 0 mm 2 mps 758 mmHg 28%
    14:00 +18°C° 0 mm 1 mps 757 mmHg 28%
    15:00 +18°C° 0 mm 1 mps 757 mmHg 27%
    16:00 +18°C° 0 mm 1 mps 756 mmHg 27%
    17:00 +15°C° 0 mm 1 mps 756 mmHg 31%
    18:00 +13°C° 0 mm 1 mps 756 mmHg 35%
    19:00 +12°C° 0 mm 1 mps 756 mmHg 38%
    20:00 +11°C° 0 mm 1 mps 756 mmHg 39%
    21:00 +10°C° 0 mm 1 mps 756 mmHg 41%
    22:00 +10°C° 0 mm 1 mps 756 mmHg 42%
    23:00 +9°C° 0 mm 1 mps 756 mmHg 43%

    27 September, Thursday

    Time Temperature Precipitation Wind Pressure Humidity
    00:00 +9°C° 0 mm 1 mps 756 mmHg 44%
    01:00 +9°C° 0 mm 1 mps 755 mmHg 45%
    02:00 +8°C° 0 mm 1 mps 755 mmHg 45%
    03:00 +8°C° 0 mm 1 mps 755 mmHg 46%
    04:00 +8°C° 0 mm 1 mps 755 mmHg 47%
    05:00 +8°C° 0 mm 1 mps 755 mmHg 46%
    06:00 +9°C° 0 mm 1 mps 755 mmHg 45%
    07:00 +10°C° 0 mm 1 mps 755 mmHg 44%
    08:00 +12°C° 0 mm 1 mps 754 mmHg 38%
    09:00 +15°C° 0 mm 2 mps 754 mmHg 33%
    10:00 +17°C° 0 mm 2 mps 754 mmHg 28%
    11:00 +19°C° 0 mm 2 mps 754 mmHg 26%
    12:00 +21°C° 0 mm 1 mps 753 mmHg 23%
    13:00 +22°C° 0 mm 1 mps 753 mmHg 21%
    14:00 +22°C° 0 mm 1 mps 753 mmHg 22%
    15:00 +22°C° 0 mm 1 mps 752 mmHg 22%
    16:00 +22°C° 0 mm 1 mps 752 mmHg 23%
    17:00 +20°C° 0 mm 1 mps 752 mmHg 26%
    18:00 +18°C° 0 mm 1 mps 751 mmHg 30%
    19:00 +14°C° 0 mm 0 mps 751 mmHg 33%
    20:00 +13°C° 0 mm 0 mps 751 mmHg 34%
    21:00 +14°C° 0 mm 1 mps 751 mmHg 35%
    22:00 +13°C° 0 mm 1 mps 751 mmHg 36%
    23:00 +13°C° 0 mm 1 mps 751 mmHg 37%

    28 September, Friday

    Time Temperature Precipitation Wind Pressure Humidity
    00:00 +12°C° 0 mm 1 mps 751 mmHg 38%
    01:00 +12°C° 0 mm 1 mps 750 mmHg 39%
    02:00 +11°C° 0 mm 0 mps 750 mmHg 40%
    03:00 +10°C° 0 mm 0 mps 750 mmHg 41%
    04:00 +10°C° 0 mm 0 mps 750 mmHg 42%
    05:00 +11°C° 0 mm 0 mps 750 mmHg 42%
    06:00 +11°C° 0 mm 0 mps 750 mmHg 42%
    07:00 +12°C° 0 mm 0 mps 750 mmHg 42%
    08:00 +15°C° 0 mm 0 mps 749 mmHg 36%
    09:00 +17°C° 0 mm 0 mps 749 mmHg 31%
    10:00 +20°C° 0 mm 0 mps 749 mmHg 25%
    11:00 +21°C° 0 mm 0 mps 749 mmHg 24%
    12:00 +24°C° 0 mm 1 mps 748 mmHg 22%
    13:00 +25°C° 0 mm 1 mps 748 mmHg 21%
    14:00 +25°C° 0 mm 1 mps 747 mmHg 21%
    15:00 +25°C° 0 mm 1 mps 747 mmHg 22%
    16:00 +25°C° 0 mm 1 mps 747 mmHg 23%
    17:00 +23°C° 0 mm 1 mps 747 mmHg 26%
    18:00 +21°C° 0 mm 1 mps 747 mmHg 29%
    19:00 +19°C° 0 mm 1 mps 747 mmHg 32%
    20:00 +18°C° 0 mm 1 mps 747 mmHg 33%
    21:00 +16°C° 0 mm 1 mps 747 mmHg 34%
    22:00 +16°C° 0 mm 1 mps 747 mmHg 35%
    23:00 +15°C° 0 mm 1 mps 747 mmHg 36%
    Show more